Vorticity
nan nan nan nan nan nan nan nan nan nan nan nan nan nan nan nan nan nan nan nan nan nan nan nan nan nan nan nan nan nan nan nan nan nan nan nan nan nan nan nan nan nan nan
nan 4 6 6 6 10 9 7 8 7 8 8 9 7 7 8 7 6 7 9 7 8 8 6 6 6 6 6 6 6 7 6 6 6 6 6 6 7 6 6 6 6 nan
nan 6 6 5 7 8 9 8 8 8 8 10 9 7 8 7 6 9 4 8 7 7 8 10 8 7 7 6 6 6 6 7 6 6 6 6 6 6 6 6 6 6 nan
nan 7 7 6 6 7 9 8 8 9 7 8 10 10 8 9 9 7 5 6 8 6 8 11 9 8 6 6 6 6 6 6 6 6 6 6 6 6 6 6 6 6 nan
nan 4 6 8 9 8 8 8 8 8 7 9 7 8 9 9 9 9 9 6 8 5 8 9 8 8 7 7 6 6 6 6 6 6 6 6 6 6 6 6 6 6 nan
nan 8 7 9 8 8 7 9 8 6 7 9 9 8 6 7 8 10 10 10 6 7 8 7 5 9 11 8 7 6 6 6 6 6 6 6 6 6 6 6 6 6 nan
nan 7 7 10 7 8 9 7 8 8 8 8 8 8 8 8 8 8 9 11 7 9 7 6 5 7 12 13 9 7 6 6 6 6 6 6 6 6 6 6 6 6 nan
nan 8 8 9 8 9 10 10 8 6 9 8 7 9 9 9 10 8 8 10 10 9 10 6 7 6 7 10 13 11 8 8 7 6 6 6 6 6 6 6 6 6 nan
nan 11 7 7 8 8 10 11 11 7 4 9 8 0 3 12 12 12 9 8 8 8 10 10 8 9 7 8 11 9 13 11 8 6 7 6 6 6 6 6 6 6 nan
nan 11 14 13 8 7 9 10 10 8 7 6 7 3 2 7 10 14 14 10 10 9 6 9 10 10 7 9 10 11 10 12 11 8 6 6 6 7 7 6 6 6 nan
nan 11 13 13 12 12 12 10 8 7 6 6 7 13 6 -2 10 13 17 11 8 9 9 9 9 10 10 8 8 15 11 9 12 10 7 7 7 7 5 6 7 7 nan
nan 8 9 11 14 15 17 16 12 9 6 6 7 10 9 8 6 8 14 15 10 8 9 9 9 9 9 12 14 11 6 9 11 11 9 8 7 6 7 7 5 6 nan
nan 7 8 9 8 10 11 13 17 15 11 10 7 7 10 10 11 7 6 13 11 7 9 11 9 9 9 9 16 13 6 8 10 11 10 9 8 8 7 7 7 7 nan
nan 8 7 7 8 8 8 10 13 14 16 13 10 7 9 9 9 9 8 6 7 8 9 10 9 8 9 10 17 6 5 11 10 10 11 9 9 7 7 8 7 6 nan
nan 6 6 6 8 9 9 10 10 12 13 12 13 10 8 9 8 10 10 10 6 6 8 6 10 12 7 11 10 6 11 10 9 9 11 10 9 7 7 7 6 5 nan
nan 6 6 7 7 7 9 10 9 11 10 10 12 12 8 8 9 9 9 10 6 5 8 10 10 12 8 12 9 6 13 10 5 7 8 10 9 7 8 8 5 6 nan
nan 8 7 7 10 9 9 9 8 10 10 10 11 12 12 9 6 8 8 7 6 9 9 10 14 12 11 10 8 9 10 6 10 10 6 8 9 8 7 7 6 8 nan
nan 11 10 10 11 10 10 9 10 10 11 11 11 12 12 13 11 9 11 9 9 10 12 14 10 11 11 9 9 7 7 9 11 12 8 8 8 9 6 6 8 8 nan
nan 10 11 12 11 12 10 10 9 10 12 12 12 12 13 13 12 12 12 12 11 11 11 13 12 11 10 10 9 8 7 8 16 15 7 8 8 6 7 6 7 7 nan
nan 10 11 12 9 11 13 11 10 12 13 10 12 15 15 15 11 10 12 12 11 12 13 11 10 11 9 9 7 8 7 8 12 13 10 8 9 7 6 7 7 7 nan
nan 9 10 10 11 13 13 12 13 11 10 11 12 12 15 17 17 13 14 14 11 10 11 9 9 10 10 11 8 6 9 9 10 7 9 8 8 8 10 10 8 10 nan
nan 9 10 10 12 13 17 12 8 11 12 12 9 13 16 14 15 14 16 19 16 14 8 7 12 12 10 7 12 12 10 7 5 10 10 9 8 8 9 19 20 11 nan
nan 12 10 11 12 16 18 12 8 8 12 12 10 9 11 14 11 9 9 11 12 14 15 17 15 9 10 11 10 11 11 7 9 12 7 11 10 9 11 16 20 10 nan
nan 10 11 12 13 15 14 12 12 9 10 11 13 10 8 12 13 13 7 7 9 9 11 15 14 14 16 17 13 10 6 4 11 12 7 11 12 10 12 15 12 4 nan
nan 11 9 12 12 14 12 12 12 10 11 11 12 12 11 13 16 10 6 9 8 10 17 17 14 16 13 10 8 8 9 8 10 12 7 6 12 11 10 11 12 11 nan
nan nan nan nan nan nan nan nan nan nan nan nan nan nan nan nan nan nan nan nan nan nan nan nan nan nan nan nan nan nan nan nan nan nan nan nan nan nan nan nan nan nan nan
CAPE
1667 1486 1635 1259 1168 814 263 73 20 0 0 0 1 1 0 0 0 0 1 0 14 8 11 6 12 11 10 12 10 10 8 9 9 9 7 5 5 5 4 4 4 2 2
1861 1291 1099 1236 912 813 439 76 10 0 0 0 0 0 0 0 0 0 6 0 9 21 18 6 4 5 14 5 11 11 10 9 8 9 7 6 5 5 4 4 4 4 3
1933 1731 1287 1069 1162 844 1263 162 51 1 0 0 0 0 0 0 0 0 1 0 4 14 18 20 6 7 13 11 7 10 12 12 12 9 8 7 6 5 5 4 5 4 4
1879 1893 1311 1541 840 1138 935 191 3 0 0 0 0 0 0 0 0 0 0 7 3 4 12 27 21 13 13 16 17 15 15 11 12 11 9 8 7 7 6 6 6 4 4
1394 1883 1602 1418 938 1067 850 107 0 0 0 0 0 0 0 0 0 0 0 3 5 1 5 17 19 24 12 13 12 15 17 13 12 10 8 9 9 6 6 6 6 6 5
868 1161 1490 1521 1138 1067 758 159 2 0 0 0 0 0 0 0 0 0 0 0 9 6 10 0 3 10 26 10 21 19 18 16 15 12 11 8 9 8 6 6 5 5 5
942 725 758 1169 1184 960 734 305 0 0 0 0 0 0 0 0 0 0 0 0 8 16 23 9 1 4 14 36 22 15 22 22 17 15 11 11 8 5 5 4 3 3 2
699 539 570 442 434 590 265 82 0 0 0 0 0 0 0 0 0 0 0 0 1 6 4 13 8 5 6 22 23 21 12 26 22 15 11 8 7 5 4 3 2 2 2
1503 731 595 453 438 440 233 56 0 0 0 0 0 0 0 0 0 0 0 0 7 2 5 8 16 10 13 11 25 25 25 29 20 16 12 9 8 5 4 4 4 3 2
81 354 556 407 316 323 241 119 0 0 0 0 0 0 0 0 0 0 0 4 8 1 10 10 10 13 14 11 14 15 4 7 19 15 12 9 9 7 6 5 4 4 4
2 10 23 255 246 211 233 20 0 0 0 0 0 0 0 0 0 0 0 4 2 12 10 4 3 1 11 20 15 0 0 0 7 16 13 12 12 9 8 6 6 4 3
0 1 9 22 76 76 121 6 0 0 0 0 0 0 0 0 0 0 0 0 0 0 0 0 1 0 0 0 7 0 0 0 1 16 12 12 11 11 9 7 6 5 5
0 0 2 7 42 58 2 5 1 1 0 0 0 0 0 0 0 0 0 0 0 0 0 0 0 0 0 0 0 0 0 0 0 7 15 10 11 10 7 7 5 4 1
28 11 6 0 0 1 38 35 3 4 0 0 0 0 0 0 0 0 0 0 0 0 0 1 0 0 0 0 0 0 0 0 0 1 5 10 7 3 1 2 2 0 0
138 103 98 72 29 20 3 8 19 5 0 0 0 0 0 0 0 0 0 0 0 0 5 5 8 2 0 0 0 0 0 0 0 0 0 0 1 0 0 0 0 0 0
284 283 264 212 167 109 38 10 11 10 1 1 0 0 0 0 0 0 0 0 0 0 0 0 6 1 0 0 0 0 0 0 0 0 0 0 0 0 0 0 0 0 0
461 403 370 318 305 270 135 19 6 10 5 2 2 0 0 0 2 0 0 2 1 0 0 2 1 0 1 0 0 0 0 0 0 0 0 0 0 0 0 0 0 0 0
624 563 573 533 562 424 271 91 5 3 6 1 2 7 0 0 1 0 1 0 0 0 0 0 1 5 0 1 0 1 0 0 0 0 0 0 0 0 0 0 0 0 0
658 740 724 666 696 460 313 105 7 4 5 1 1 3 2 0 0 0 0 0 0 0 6 0 2 2 0 11 10 14 0 0 0 2 0 0 1 1 0 0 0 0 0
887 805 800 821 749 465 192 2 1 5 2 0 0 0 0 0 0 0 0 0 0 1 0 3 5 6 7 19 1 3 4 1 2 3 4 2 1 0 0 0 0 0 0
721 765 797 790 748 335 53 5 0 0 0 3 0 0 0 0 0 0 0 3 0 0 0 3 3 4 4 4 2 2 2 0 3 5 3 2 0 1 0 0 0 0 0
541 735 720 695 753 465 18 0 0 0 0 0 0 0 0 1 0 1 0 6 14 3 2 0 0 0 0 0 0 0 0 2 4 9 4 5 4 2 0 0 0 0 0
542 535 648 642 669 580 11 0 0 0 0 0 0 0 0 0 0 0 1 1 1 0 0 0 0 0 0 0 0 0 0 0 1 8 9 10 5 4 0 0 0 0 0
592 632 680 800 923 356 0 0 0 3 0 0 0 0 0 0 0 0 0 0 0 0 0 0 0 0 0 1 0 0 2 1 2 2 2 12 2 1 6 0 0 0 0
586 392 474 529 324 1 0 0 0 0 0 0 0 0 0 0 1 0 0 0 1 1 2 2 2 4 5 4 3 1 0 1 4 5 3 4 5 9 6 3 0 0 0
175 8 4 1 0 1 0 1 0 0 0 0 0 0 0 0 0 0 0 0 2 2 1 0 0 1 2 3 2 4 2 5 10 14 4 2 8 1 0 2 1 0 0